Flock 4h-8

operational
NORAD ID: 66711 Int'l Des: 2025-276 Owner: PLAN Country: US Constellation: planet
NOTLE

About Flock 4h-8

Description loading...

Live Position

Loading 3D Globe...

Upcoming Passes

Altitude History

Altitude vs Time

uPlot chart will show altitude changes over time

Two-Line Element Set

1 66711U 25276AX 26047.26675123 .00008165 00000-0 39932-3 0 9993
2 66711 97.4346 122.9202 0004936 83.1555 277.0240 15.18460018 12068
Epoch: Feb 16, 2026 • Age: 11 hours

Current Status

Altitude 520.4 km
Velocity 7.61 km/s
Sub-Earth Point 79.62°N, 24.02°E
Launch Date Nov 28, 2025
Age 0.2 years
Type earth observation

Technical Details

Classification Payload
Mass 5.70 kg
Dry Mass 5.70 kg
Total Mass 5.70 kg
Length 0.30 m
Diameter 0.10 m
Span 0.30 m
Shape Box+2 pan
Manufacturer PLAN
Bus Type Cubesat 3U
Phase Status In Orbit
Owner/State PLAN/US

Large Constellations

Loading constellations...